Weather History for Hollywood, FL

Change the Weather History Date:

Friday, February 22, 2013

  Actual Average (KFLL) Record (KFLL)
Temperature  
Mean Temperature 77 °F 71 °F  
Max Temperature 82 °F 78 °F 87 °F (2011)
Min Temperature 72 °F 65 °F 40 °F (1973)
Degree Days  
Heating Degree Days 0 1  
Month to date heating degree days 22  
Since 1 July heating degree days 102  
Cooling Degree Days 12 7  
Month to date cooling degree days 145  
Year to date cooling degree days 315  
Growing Degree Days 27 (Base 50)    
Moisture  
Dew Point 68 °F    
Average Humidity 76    
Maximum Humidity 88    
Minimum Humidity 60    
Precipitation  
Precipitation 0.00 in 0.09 in 1.07 in (1967)
Month to date precipitation 2.39  
Year to date precipitation 6.02  
Snow  
Snow 0.00 in - - ()
Month to date snowfall  
Since 1 July snowfall  
Snow Depth -    
Sea Level Pressure  
Sea Level Pressure 30.08 in    
Wind  
Wind Speed 11 mph (ESE)    
Max Wind Speed 18 mph    
Max Gust Speed 23 mph    
Visibility 10 miles    
Events      
T = Trace of Precipitation, MM = Missing Value Source: NWS Daily Summary

Daily Weather History Graph

Daily Weather History Graph

Search for Another Location

Airport:

Trip Planner

Search our weather history database for the weather conditions in past years. The results will help you decide how hot, cold, wet, or windy it might be!

Date:

Astronomy

Feb. 22, 2013 Rise Set
Actual Time 6:50 AM EST 6:18 PM EST
Civil Twilight 6:27 AM EST 6:42 PM EST
Nautical Twilight 6:00 AM EST 7:08 PM EST
Astronomical Twilight 5:33 AM EST 7:35 PM EST
Moon 3:39 PM EST 4:22 AM EST
Length of Visible Light 12h 14m
Length of Day
11h 28m
Waxing Gibbous, 90% of the Moon is Illuminated
Feb 22
Waxing Gibbous
Feb 25
Full
Mar 4
Last Quarter
Mar 11
New
Mar 19
First Quarter

Hourly Weather History & Observations

Time (EST) Temp. Heat Index Dew Point Humidity Pressure Visibility Wind Dir Wind Speed Gust Speed Precip Events Conditions
12:53 AM 72.0 °F - 66.0 °F 81% 30.07 in 10.0 mi ESE 6.9 mph - N/A   Partly Cloudy
1:53 AM 73.0 °F - 68.0 °F 84% 30.06 in 10.0 mi East 6.9 mph - N/A   Mostly Cloudy
2:46 AM 73.4 °F - 68.0 °F 83% 30.05 in 10.0 mi East 9.2 mph - N/A   Scattered Clouds
2:53 AM 73.0 °F - 68.0 °F 84% 30.04 in 10.0 mi ESE 8.1 mph - N/A   Mostly Cloudy
3:35 AM 73.4 °F - 68.0 °F 83% 30.04 in 10.0 mi ESE 9.2 mph - N/A   Mostly Cloudy
3:53 AM 73.0 °F - 68.0 °F 84% 30.04 in 10.0 mi ESE 6.9 mph - N/A   Scattered Clouds
4:53 AM 73.0 °F - 68.0 °F 84% 30.05 in 10.0 mi ESE 9.2 mph - N/A   Scattered Clouds
5:53 AM 73.0 °F - 68.0 °F 84% 30.07 in 10.0 mi ESE 8.1 mph - N/A   Mostly Cloudy
6:53 AM 73.0 °F - 68.0 °F 84% 30.09 in 10.0 mi ESE 8.1 mph - N/A   Partly Cloudy
7:53 AM 75.0 °F - 69.1 °F 82% 30.11 in 10.0 mi ESE 10.4 mph - N/A   Clear
8:45 AM 75.2 °F - 68.0 °F 78% 30.11 in 10.0 mi SE 10.4 mph - N/A   Mostly Cloudy
8:53 AM 77.0 °F - 69.1 °F 76% 30.11 in 10.0 mi ESE 17.3 mph 20.7 mph N/A   Mostly Cloudy
9:02 AM 77.0 °F - 68.0 °F 74% 30.11 in 10.0 mi ESE 15.0 mph - N/A   Scattered Clouds
9:14 AM 77.0 °F - 68.0 °F 74% 30.11 in 10.0 mi SE 12.7 mph - N/A   Mostly Cloudy
9:53 AM 77.0 °F - 68.0 °F 74% 30.12 in 10.0 mi SE 11.5 mph - N/A   Overcast
10:32 AM 78.8 °F - 68.0 °F 69% 30.12 in 10.0 mi SE 15.0 mph - N/A   Mostly Cloudy
10:44 AM 80.6 °F 83.9 °F 69.8 °F 70% 30.12 in 10.0 mi SE 16.1 mph - N/A   Mostly Cloudy
10:53 AM 78.1 °F - 68.0 °F 71% 30.12 in 10.0 mi SE 17.3 mph 21.9 mph N/A   Mostly Cloudy
11:06 AM 78.8 °F - 69.8 °F 74% 30.12 in 10.0 mi SE 13.8 mph - N/A   Mostly Cloudy
11:44 AM 78.8 °F - 68.0 °F 69% 30.12 in 10.0 mi ESE 18.4 mph - N/A   Overcast
11:53 AM 78.1 °F - 68.0 °F 71% 30.12 in 10.0 mi SE 17.3 mph - N/A   Overcast
12:53 PM 82.0 °F 84.9 °F 68.0 °F 62% 30.09 in 10.0 mi SE 16.1 mph 20.7 mph N/A   Mostly Cloudy
1:29 PM 80.6 °F 82.7 °F 66.2 °F 61% 30.07 in 10.0 mi ESE 12.7 mph 23.0 mph N/A   Mostly Cloudy
1:43 PM 82.4 °F 85.4 °F 68.0 °F 62% 30.07 in 10.0 mi SE 13.8 mph 20.7 mph N/A   Mostly Cloudy
1:53 PM 82.0 °F 84.5 °F 66.9 °F 60% 30.07 in 10.0 mi SSE 16.1 mph - N/A   Mostly Cloudy
2:53 PM 81.0 °F 83.0 °F 66.0 °F 60% 30.06 in 10.0 mi SE 13.8 mph - N/A   Scattered Clouds
3:53 PM 82.0 °F 84.9 °F 68.0 °F 62% 30.06 in 10.0 mi SE 16.1 mph 19.6 mph N/A   Scattered Clouds
4:09 PM 80.6 °F 83.2 °F 68.0 °F 65% 30.05 in 10.0 mi SE 13.8 mph - N/A   Mostly Cloudy
4:16 PM 80.6 °F 83.2 °F 68.0 °F 65% 30.05 in 10.0 mi ESE 13.8 mph - N/A   Scattered Clouds
4:53 PM 79.0 °F - 68.0 °F 69% 30.06 in 10.0 mi SE 11.5 mph - N/A   Scattered Clouds
5:53 PM 77.0 °F - 66.9 °F 71% 30.07 in 10.0 mi ESE 13.8 mph - N/A   Partly Cloudy
6:53 PM 75.0 °F - 68.0 °F 79% 30.08 in 10.0 mi ESE 11.5 mph - N/A   Scattered Clouds
7:53 PM 75.0 °F - 69.1 °F 82% 30.09 in 10.0 mi ESE 10.4 mph - N/A   Scattered Clouds
8:53 PM 75.0 °F - 69.1 °F 82% 30.09 in 10.0 mi ESE 12.7 mph - N/A   Partly Cloudy
9:53 PM 75.0 °F - 69.1 °F 82% 30.10 in 10.0 mi ESE 10.4 mph - N/A   Partly Cloudy
10:53 PM 73.9 °F - 70.0 °F 87% 30.10 in 10.0 mi ESE 9.2 mph - N/A   Partly Cloudy
11:27 PM 75.2 °F - 69.8 °F 83% 30.08 in 10.0 mi ESE 12.7 mph - N/A   Mostly Cloudy
11:34 PM 73.4 °F - 69.8 °F 88% 30.08 in 10.0 mi ESE 17.3 mph 23.0 mph N/A   Mostly Cloudy
11:40 PM 73.4 °F - 68.0 °F 83% 30.08 in 10.0 mi ESE 16.1 mph - N/A   Scattered Clouds
11:53 PM 73.0 °F - 68.0 °F 84% 30.08 in 10.0 mi ESE 10.4 mph - N/A   Partly Cloudy